810  
ASUS43 KEAX 182110  
RWREAX  
 
WEATHER ROUNDUP FOR EASTERN KANSAS AND NORTHWEST MISSOURI  
NATIONAL WEATHER SERVICE KANSAS CITY/PLEASANT HILL MO  
400 PM CDT THU JUL 18 2019  
 
KSZ040-057-103>105-MOZ028-029-037-043-182200-   
..KANSAS CITY METROPOLITAN AREA
 
 
 
CITY SKY/WX TMP DP RH WIND PRES REMARKS
 
K.C. INTL FAIR 95 77 55 S20G30 29.78 HX 109  
K.C. DOWNTOWN FAIR 96 74 48 S18G28 29.77 HX 107  
LEES SUMMIT LGT RAIN 94 74 52 S21G32 29.81 HX 104  
OLATHE - IXD FAIR 95 74 50 S20G29 29.81 HX 105  
OLATHE - OJC FAIR 92 76 59 S15G25 29.80 HX 104  
LAWRENCE FAIR 100 74 43 SW18G28 29.77 HX 112  
 

 
 
MOZ001>008-011>017-020>025-030>033-038>040-044>046-053-054-182200-   
..NORTHERN AND CENTRAL MISSOURI
 
 
 
CITY SKY/WX TMP DP RH WIND PRES REMARKS
 
ST. JOSEPH FAIR 94 76 55 S16G31 29.74 HX 106  
MOSBY FAIR 95 72 46 S13G18 29.79F HX 103  
WARRENSBURG FAIR 91 73 55 S14G23 29.82F HX 100  
WHITEMAN AFB MOSUNNY 92 77 60 S20 29.79F HX 106  
CLINTON FAIR 93 75 55 SW13G18 29.85S HX 104  
SEDALIA FAIR 90 73 57 S17G28 29.85 HX 98  
WARSAW NOT AVBL  
CHILLICOTHE N/A 96 75 50 S14G30 29.78 HX 108  
KIRKSVILLE FAIR 93 75 55 SW10G23 29.80 HX 104  
 

 
 
MOZ041-047>049-056>058-063>065-088>090-097-182200-   
..EASTERN AND SOUTHERN MISSOURI
 
 
 
CITY SKY/WX TMP DP RH WIND PRES REMARKS
 
ST. LOUIS INTL FAIR 95 74 50 S12G20 29.87 HX 105  
SPIRIT OF STL FAIR 93 76 57 S10 29.86 HX 105  
COLUMBIA FAIR 93 75 55 S18G25 29.85 HX 104  
ROLLA FAIR 91 74 57 S14G22 29.91 HX 100  
OSAGE BEACH PTSUNNY 95 75 52 S9 29.89F HX 107  
SPRINGFIELD FAIR 93 72 50 S16 29.91 HX 101  
BRANSON MOSUNNY 91 73 55 SW8 29.97F HX 100  
JOPLIN FAIR 92 74 55 S16G25 29.88 HX 101  
WEST PLAINS FAIR 91 75 59 S9 29.97 HX 101  
 

 
 
IAZ060-094-KSZ022-034>040-054-083-096-NEZ052-066-093-182200-    
..KANSAS...SOUTHEAST NEBRASKA AND IOWA
 
 
 
CITY SKY/WX TMP DP RH WIND PRES REMARKS
 
TOPEKA FAIR 97 75 49 S17G30 29.75 HX 109  
MANHATTAN FAIR 99 73 43 SW17G25 29.72 HX 109  
EMPORIA FAIR 96 74 48 S24G32 29.78 HX 107  
CHANUTE FAIR 96 75 50 S21G32 29.83 HX 108  
WICHITA FAIR 100 68 35 S23G33 29.77 HX 105  
OMAHA FAIR 96 74 48 S15G25 29.67 HX 107  
LINCOLN FAIR 97 73 45 S17G26 29.69 HX 107  
FALLS CITY FAIR 96 75 50 S17G31 29.71 HX 108  
DES MOINES FAIR 95 74 50 S17 29.69 HX 105  
 

 
 
 
 
CLICK HERE TO GO TO PREVIOUS BULLETINS.

The Nexlab MO Page
The Nexlab KS Page Main Text Page